This is the latest recevied weather packets stored in our database for station/object IT9RID. If no packets are shown the sender has not sent any weather packets the latest 10 day(s).
| Time | Temp. | Humidity | Pressure | Rain* | Wind** | Luminosity | Snow |
|---|---|---|---|---|---|---|---|
| 1778074486 | 25.56° C | 40% | 1011.6 hPa | 0 mm | - | - | - |
| 1778073886 | 26.11° C | 38% | 1011.6 hPa | 0 mm | - | - | - |
| 1778073285 | 26.11° C | 36% | 1011.5 hPa | 0 mm | - | - | - |
| 1778072685 | 26.67° C | 38% | 1011.7 hPa | 0 mm | - | - | - |
| 1778072088 | 26.11° C | 42% | 1011.8 hPa | 0 mm | - | - | - |
| 1778071485 | 26.11° C | 40% | 1012.1 hPa | 0 mm | - | - | - |
| 1778070884 | 26.67° C | 41% | 1012 hPa | 0 mm | - | - | - |
| 1778070284 | 27.22° C | 42% | 1012.1 hPa | 0 mm | - | - | - |
| 1778069684 | 26.67° C | 44% | 1011.9 hPa | 0 mm | - | - | - |
| 1778069084 | 25.56° C | 47% | 1012 hPa | 0 mm | - | - | - |
| 1778068484 | 25.56° C | 47% | 1012.1 hPa | 0 mm | - | - | - |
| 1778067884 | 25.56° C | 46% | 1012.3 hPa | 0 mm | - | - | - |
| 1778067284 | 25.56° C | 47% | 1012.4 hPa | 0 mm | - | - | - |
| 1778066684 | 25.56° C | 47% | 1012.5 hPa | 0 mm | - | - | - |
| 1778066083 | 25° C | 47% | 1012.7 hPa | 0 mm | - | - | - |
| 1778065483 | 25° C | 46% | 1012.7 hPa | 0 mm | - | - | - |
| 1778064883 | 25° C | 46% | 1012.8 hPa | 0 mm | - | - | - |
| 1778064283 | 25° C | 45% | 1013.1 hPa | 0 mm | - | - | - |
| 1778063683 | 25.56° C | 44% | 1013 hPa | 0 mm | - | - | - |
| 1778063083 | 25.56° C | 43% | 1013.1 hPa | 0 mm | - | - | - |
| 1778062482 | 25° C | 45% | 1013.3 hPa | 0 mm | - | - | - |
| 1778061882 | 25° C | 45% | 1013.3 hPa | 0 mm | - | - | - |
| 1778061282 | 24.44° C | 46% | 1013.4 hPa | 0 mm | - | - | - |
| 1778060682 | 23.89° C | 46% | 1013.6 hPa | 0 mm | - | - | - |
| 1778060082 | 23.33° C | 46% | 1013.8 hPa | 0 mm | - | - | - |
* Rain latest hour (hover to see other rain measurements)
** Current wind speed in m/s (hover to see current wind gust speed)